This is the latest recevied weather packets stored in our database for station/object HK6LRQ-21. If no packets are shown the sender has not sent any weather packets the latest 10 day(s).
| Time | Temp. | Humidity | Pressure | Rain* | Wind** | Luminosity | Snow |
|---|---|---|---|---|---|---|---|
| 1788151728 | 52° F | 88% | 762.8 mmHg | 0 in | - | - | - |
| 1788150527 | 53° F | 88% | 762.8 mmHg | 0 in | - | - | - |
| 1788149326 | 53° F | 88% | 762.8 mmHg | 0 in | - | - | - |
| 1788148125 | 53° F | 88% | 762.8 mmHg | 0 in | - | - | - |
| 1788146924 | 53° F | 88% | 762.1 mmHg | 0 in | - | - | - |
| 1788145723 | 51° F | 91% | 762.1 mmHg | 0 in | - | - | - |
| 1788144522 | 53° F | 91% | 762.8 mmHg | 0 in | - | - | - |
| 1788143321 | 53° F | 91% | 762.1 mmHg | 0 in | - | - | - |
| 1788142120 | 53° F | 91% | 762.1 mmHg | 0 in | - | - | - |
| 1788140919 | 54° F | 91% | 762.1 mmHg | 0 in | - | - | - |
| 1788139718 | 54° F | 91% | 761.3 mmHg | 0 in | - | - | - |
| 1788138517 | 55° F | 91% | 761.3 mmHg | 0 in | - | - | - |
| 1788137316 | 55° F | 91% | 761.3 mmHg | 0 in | - | - | - |
| 1788136115 | 56° F | 91% | 760.6 mmHg | 0 in | - | - | - |
| 1788134914 | 56° F | 91% | 760.6 mmHg | 0 in | - | - | - |
| 1788133713 | 56° F | 91% | 760.6 mmHg | 0 in | - | - | - |
| 1788132512 | 57° F | 91% | 759.1 mmHg | 0 in | - | - | - |
| 1788131311 | 57° F | 91% | 759.1 mmHg | 0 in | - | - | - |
| 1788130110 | 57° F | 91% | 759.8 mmHg | 0 in | - | - | - |
| 1788128909 | 58° F | 87% | 758.3 mmHg | 0 in | - | - | - |
| 1788127708 | 58° F | 88% | 758.3 mmHg | 0 in | - | - | - |
| 1788126507 | 58° F | 86% | 759.1 mmHg | 0 in | - | - | - |
| 1788125306 | 58° F | 87% | 758.3 mmHg | 0 in | - | - | - |
| 1788124105 | 59° F | 89% | 758.3 mmHg | 0 in | - | - | - |
| 1788122904 | 61° F | 91% | 759.1 mmHg | 0 in | - | - | - |
* Rain latest hour (hover to see other rain measurements)
** Current wind speed in m/s (hover to see current wind gust speed)